TimeCDT,TemperatureF,Dew PointF,Humidity,Sea Level PressureIn,VisibilityMPH,Wind Direction,Wind SpeedMPH,Gust SpeedMPH,PrecipitationIn,Events,Conditions,WindDirDegrees,DateUTC
12:18 AM,59.0,57.2,94,29.91,10.0,SE,5.8,-,N/A,,Overcast,130,2013-04-28 05:18:00
12:56 AM,59.0,57.9,96,29.91,10.0,SSE,6.9,-,N/A,,Overcast,160,2013-04-28 05:56:00
1:10 AM,59.0,57.2,94,29.92,10.0,SSE,9.2,-,N/A,Thunderstorm,Thunderstorm,160,2013-04-28 06:10:00
1:39 AM,59.0,57.2,94,29.90,10.0,SSE,8.1,-,N/A,,Overcast,150,2013-04-28 06:39:00
1:56 AM,59.0,57.9,96,29.89,10.0,SSE,9.2,-,N/A,,Overcast,150,2013-04-28 06:56:00
2:16 AM,59.0,57.2,94,29.90,10.0,SSE,10.4,-,N/A,,Overcast,160,2013-04-28 07:16:00
2:56 AM,59.0,57.9,96,29.88,10.0,South,9.2,-,N/A,,Overcast,180,2013-04-28 07:56:00
3:56 AM,59.9,59.0,97,29.87,10.0,South,11.5,-,N/A,,Overcast,180,2013-04-28 08:56:00
4:20 AM,60.8,60.8,100,29.88,10.0,SSW,11.5,-,N/A,Thunderstorm,Overcast,210,2013-04-28 09:20:00
4:35 AM,60.8,60.8,100,29.88,10.0,SSW,11.5,-,0.00,Rain,Light Rain,200,2013-04-28 09:35:00
4:56 AM,59.9,59.0,97,29.87,10.0,South,11.5,-,0.00,,Overcast,180,2013-04-28 09:56:00
5:27 AM,60.8,59.0,94,29.87,10.0,South,11.5,-,N/A,,Overcast,190,2013-04-28 10:27:00
5:56 AM,59.0,57.9,96,29.88,10.0,WSW,9.2,-,0.00,,Overcast,240,2013-04-28 10:56:00
6:03 AM,59.0,59.0,100,29.88,10.0,SSW,8.1,-,N/A,,Overcast,200,2013-04-28 11:03:00
6:56 AM,59.0,59.0,100,29.89,10.0,SSW,8.1,-,N/A,,Overcast,210,2013-04-28 11:56:00
7:37 AM,59.0,59.0,100,29.90,1.8,SW,9.2,-,0.00,Rain,Light Rain,220,2013-04-28 12:37:00
7:49 AM,59.0,59.0,100,29.90,2.5,SW,9.2,-,0.00,Rain,Light Rain,220,2013-04-28 12:49:00
7:56 AM,59.0,59.0,100,29.91,1.0,WNW,11.5,-,0.00,Rain,Light Rain,300,2013-04-28 12:56:00
8:56 AM,57.9,57.9,100,29.92,1.0,West,8.1,-,0.00,Rain,Light Rain,270,2013-04-28 13:56:00
8:58 AM,57.2,57.2,100,29.92,1.0,West,8.1,-,0.00,Rain,Light Rain,270,2013-04-28 13:58:00
9:56 AM,57.9,56.8,96,29.93,3.0,West,8.1,-,0.00,,Overcast,260,2013-04-28 14:56:00
10:56 AM,59.0,56.8,93,29.93,3.0,West,12.7,-,N/A,,Overcast,260,2013-04-28 15:56:00
11:56 AM,59.0,54.9,86,29.93,7.0,West,10.4,-,N/A,,Overcast,280,2013-04-28 16:56:00
12:56 PM,59.9,55.9,87,29.93,7.0,WSW,12.7,-,N/A,,Overcast,240,2013-04-28 17:56:00
1:56 PM,61.0,55.9,83,29.94,7.0,SW,10.4,-,N/A,,Overcast,230,2013-04-28 18:56:00
2:56 PM,59.9,54.9,83,29.93,10.0,WSW,11.5,-,N/A,,Overcast,250,2013-04-28 19:56:00
3:56 PM,59.0,54.9,86,29.91,10.0,West,12.7,-,N/A,,Overcast,280,2013-04-28 20:56:00
4:56 PM,57.9,54.9,90,29.92,10.0,West,11.5,-,N/A,,Overcast,260,2013-04-28 21:56:00
5:15 PM,57.2,55.4,94,29.93,6.0,West,11.5,-,N/A,,Overcast,280,2013-04-28 22:15:00
5:56 PM,57.9,54.9,90,29.93,7.0,West,6.9,-,N/A,,Overcast,260,2013-04-28 22:56:00
6:05 PM,57.2,55.4,94,29.93,6.0,West,6.9,-,N/A,,Overcast,260,2013-04-28 23:05:00
6:56 PM,57.9,54.9,90,29.93,6.0,West,8.1,-,N/A,,Overcast,260,2013-04-28 23:56:00
7:03 PM,57.2,55.4,94,29.93,6.0,West,6.9,-,N/A,,Overcast,260,2013-04-29 00:03:00
7:56 PM,56.8,54.9,93,29.94,6.0,WSW,4.6,-,N/A,,Overcast,250,2013-04-29 00:56:00
8:04 PM,57.2,55.4,94,29.94,7.0,WSW,5.8,-,N/A,,Overcast,250,2013-04-29 01:04:00
8:56 PM,56.8,54.9,93,29.96,7.0,West,3.5,-,N/A,,Overcast,260,2013-04-29 01:56:00
9:56 PM,56.8,54.9,93,29.96,10.0,West,5.8,-,N/A,,Overcast,260,2013-04-29 02:56:00
10:56 PM,55.9,54.9,96,29.95,8.0,West,5.8,-,N/A,,Overcast,280,2013-04-29 03:56:00
11:56 PM,54.9,54.0,97,29.95,7.0,West,3.5,-,N/A,,Overcast,270,2013-04-29 04:56:00